This demonstration page uses our WeatherBlox Daily Observations layout. Learn more.

Left ArrowRight Arrow

38.20091, -84.87328

Hourly Observations for September 30, 2022

Temp ( °F °C ) Dew Point ( °F °C ) Humidity (%) Winds ( mph kmh ) Pressure ( in mb ) Visibility ( mi km ) Precip ( " mm )
12:53 am 00:53 Clear 52 11.1 46 7.8 80 80 NE 7 11 30.26 1025 10 16 0.00 0.00
1:53 am 01:53 Clear 51 10.6 45 7.2 79 79 NE 6 9 30.24 1024 10 16 0.00 0.00
2:53 am 02:53 Clear 50 10 45 7.2 83 83 NE 3 6 30.23 1024 10 16 0.00 0.00
3:53 am 03:53 Clear 49 9.4 45 7.2 86 86 NE 6 9 30.22 1023 10 16 0.00 0.00
4:53 am 04:53 Clear 48 8.9 44 6.7 86 86 NE 5 7 30.21 1023 10 16 0.00 0.00
5:53 am 05:53 Clear 47 8.3 44 6.7 90 90 N 3 6 30.22 1023 10 16 0.00 0.00
6:53 am 06:53 Clear 46 7.8 43 6.1 89 89 N 3 6 30.22 1023 10 16 0.00 0.00
7:53 am 07:53 Sunny 46 7.8 43 6.1 89 89 NE 3 6 30.23 1024 10 16 0.00 0.00
8:53 am 08:53 Sunny 49 9.4 44 6.7 83 83 NNE 6 9 30.23 1024 10 16 0.00 0.00
9:53 am 09:53 Sunny 53 11.7 46 7.8 77 77 NE 8 13 30.22 1023 10 16 0.00 0.00
10:53 am 10:53 Sunny 59 15 48 8.9 67 67 NNE 7 11 30.21 1023 10 16 0.00 0.00
11:53 am 11:53 Sunny 64 17.8 48 8.9 56 56 NE 8 13 30.19 1022 10 16 0.00 0.00
12:53 pm 12:53 Sunny 67 19.4 46 7.8 47 47 VRB 6 9 30.16 1022 10 16 0.00 0.00
1:53 pm 13:53 Sunny 69 20.6 45 7.2 42 42 VRB 7 11 30.14 1021 10 16 0.00 0.00
2:53 pm 14:53 Sunny 71 21.7 44 6.7 38 38 N 13 20 30.10 1019 10 16 0.00 0.00
3:53 pm 15:53 Sunny 73 22.8 42 5.6 33 33 NE 9 15 30.07 1018 10 16 0.00 0.00
4:53 pm 16:53 Sunny 73 22.8 42 5.6 33 33 NNE 8 13 30.05 1018 10 16 0.00 0.00
5:53 pm 17:53 Sunny 72 22.2 43 6.1 35 35 NNE 6 9 30.05 1018 10 16 0.00 0.00
6:53 pm 18:53 Sunny 69 20.6 43 6.1 39 39 N 7 11 30.04 1017 10 16 0.00 0.00
7:53 pm 19:53 Clear 64 17.8 44 6.7 48 48 N 3 6 30.04 1017 10 16 0.00 0.00
8:53 pm 20:53 Clear 62 16.7 43 6.1 50 50 NNE 5 7 30.03 1017 10 16 0.00 0.00
9:53 pm 21:53 Clear 61 16.1 43 6.1 51 51 NNE 3 6 30.02 1017 10 16 0.00 0.00
10:53 pm 22:53 Clear 59 15 42 5.6 53 53 NE 7 11 30.02 1017 10 16 0.00 0.00
11:53 pm 23:53 Clear 57 13.9 41 5 55 55 NNE 3 6 30.02 1017 10 16 0.00 0.00

Powered by AerisWeather